Miscellaneous Local Product
Issued by NWS North Platte, NE

Home | Current Version | Previous Version | Text Only | Print | Product List | Glossary On
Versions: 1 2 3 4 5 6 7 8 9 10 11 12 13 14 15 16 17 18 19 20 21 22 23 24 25 26 27 28 29 30 31 32 33 34 35 36 37 38 39 40 41 42 43 44 45 46 47 48 49 50
000
AXUS43 KLBF 251710
MISLBF


WESTERN AND NORTH CENTRAL NEBRASKA HOURLY WEATHER ROUNDUP
NATIONAL WEATHER SERVICE NORTH PLATTE NE
1200 PM CDT MON JUL 25 2016

NOTE: "FAIR" INDICATES FEW OR NO CLOUDS BELOW 12,000 FEET WITH NO
SIGNIFICANT WEATHER AND/OR OBSTRUCTIONS TO VISIBILITY.

NOTE: STATIONS NOT REPORTING VARIABLES SUCH AS SKY/WEATHER OR
PRESSURE ARE PROVIDED BY RAWS AND APRS NETWORKS AND ARE NOT UNDER
NATIONAL WEATHER SERVICE QUALITY CONTROL.

...OBSERVATIONS IN AND NEAR THE EASTERN PANHANDLE OF NEBRASKA...

CITY           SKY/WX    TMP DP  RH WIND       PRES   REMARKS
PINE RIDGE     SUNNY     85  56  37 S16G24    30.13S
CHADRON        SUNNY     83  54  36 S18       30.11F
ALLIANCE       SUNNY     79  57  46 S21G26    30.17F
SIDNEY         SUNNY     79  57  46 S18G28    30.20F
CRESCENT LAKE    N/A     79  61  53 SE8G16      N/A
$$

...OBSERVATIONS IN NORTHERN NEBRASKA AND FAR SOUTHERN SOUTH DAKOTA...

CITY           SKY/WX    TMP DP  RH WIND       PRES   REMARKS
WINNER         FAIR      88  44  21 S17       30.11F
VALENTINE      SUNNY     84  51  31 S20G26    30.14F
THEDFORD       SUNNY     82  56  41 SE15      30.19S
AINSWORTH      SUNNY     82  50  32 SE14      30.16F
O`NEILL        SUNNY     84  52  33 S14       30.16F
ORD            SUNNY     79  55  43 S9        30.15F
BROKEN BOW     SUNNY     79  61  53 SE14      30.18S
VALENTINE NWR    N/A     81  53  37 S13         N/A
BUTTE            N/A     82  58  43 S13G20      N/A
HALSEY           N/A     80  54  40 SE9         N/A
EWING            N/A     83  63  50 S7          N/A
$$

...OBSERVATIONS IN SOUTHWEST NEBRASKA AND FAR NORTHEAST COLORADO...

CITY           SKY/WX    TMP DP  RH WIND       PRES   REMARKS
HOLYOKE          N/A     79  61  53 W14       30.19F
IMPERIAL       SUNNY     78  62  57 SE14      30.18F
OGALLALA       SUNNY     81  60  48 SE12      30.18S
NORTH PLATTE   SUNNY     79  65  62 E12       30.17F
MCCOOK         SUNNY     81  62  52 SE13      30.16F
LEXINGTON      SUNNY     79  63  57 SE12      30.17F
STAPLETON        N/A     80  64  58 CALM        N/A
GOTHENBURG       N/A     76  60  57 SE9         N/A
CALLAWAY         N/A     77  67  71 SE12        N/A
$$

...OBSERVATIONS IN CENTRAL LINCOLN COUNTY AREA...

CITY           SKY/WX    TMP DP  RH WIND       PRES   REMARKS
N.P. AIRPORT   SUNNY     79  65  62 E12       30.17F
N.P. DOWNTOWN    N/A     80  67  63 E3          N/A
N.P. SOUTHEAST   N/A     80  66  61 SE3G12      N/A
N.P. HILLCREST   N/A     78  65  64 SE9         N/A
$$

...SOME OBSERVATIONS FROM AROUND THE REGION...

CITY           SKY/WX    TMP DP  RH WIND       PRES   REMARKS
DENVER         MOSUNNY   80  53  39 E6        30.20F
LARAMIE        SUNNY     78  39  24 VRB3      30.31F
CHEYENNE       SUNNY     75  57  53 SE10      30.25S
SCOTTSBLUFF    SUNNY     82  56  40 SE13      30.15F
RAPID CITY     SUNNY     86  58  38 S17G26    30.08S
BISMARCK       SUNNY     83  64  52 S9        29.98F
PIERRE         SUNNY     90  57  32 S17G29    30.03F
SIOUX FALLS    MOSUNNY   82  60  47 VRB6      30.12F
OMAHA          MOSUNNY   83  64  52 CALM      30.13S
GRAND ISLAND   CLOUDY    80  64  58 SE12G18   30.16F
KANSAS CITY    CLOUDY    78  69  73 CALM      30.10F
WICHITA        PTSUNNY   79  67  66 S5        30.09R
OKLAHOMA CITY  CLOUDY    88  71  57 NE10      30.05R HX  94
DALLAS         CLOUDY    89  72  56 SE5       29.97F HX  96
AMARILLO       SUNNY     88  61  40 CALM      30.15S
DODGE CITY     MOSUNNY   78  68  71 E13       30.17S
HAYS           CLOUDY    75  63  64 S6        30.15R
GOODLAND       SUNNY     79  62  56 SE13      30.19F
$$




USA.gov is the U.S. government's official web portal to all federal, state and local government web resources and services.